When you browse on this site, cookies collect data to enhance your experience and personalize the content and advertising you see.
Visit our Privacy Policy to learn more. By continuing to use the site, you agree to this use of cookies and data.
  • In Switzerland
  • List of Countries
  • For 7 days
  • Water Temperature
  • Weather Map
  • Weather Widgets
  • user-avatar
    Login

    Hourly Weather Zibrovo

    Today, 26 August, Monday

    Time Temperature Precipitation Wind Pressure Humidity
    00:00 +13°C° 0 mm 2 mps 755 mmHg 90%
    01:00 +13°C° 0 mm 2 mps 755 mmHg 92%
    02:00 +12°C° 0 mm 2 mps 756 mmHg 93%
    03:00 +12°C° 0 mm 1 mps 756 mmHg 93%
    04:00 +12°C° 0 mm 1 mps 756 mmHg 94%
    05:00 +12°C° 0 mm 1 mps 756 mmHg 94%
    06:00 +13°C° 0 mm 1 mps 756 mmHg 88%
    07:00 +15°C° 0 mm 1 mps 756 mmHg 81%
    08:00 +18°C° 0 mm 1 mps 756 mmHg 75%
    09:00 +19°C° 0 mm 1 mps 756 mmHg 70%
    10:00 +21°C° 0 mm 1 mps 756 mmHg 65%
    11:00 +22°C° 0 mm 1 mps 755 mmHg 60%
    12:00 +22°C° 0 mm 1 mps 755 mmHg 59%
    13:00 +23°C° 0 mm 2 mps 755 mmHg 57%
    14:00 +23°C° 0 mm 2 mps 754 mmHg 55%
    15:00 +23°C° 0 mm 2 mps 754 mmHg 59%
    16:00 +21°C° 0 mm 2 mps 753 mmHg 63%
    17:00 +21°C° 0 mm 2 mps 753 mmHg 68%
    18:00 +19°C° 0 mm 2 mps 753 mmHg 72%
    19:00 +18°C° 0 mm 2 mps 753 mmHg 76%
    20:00 +16°C° 0 mm 2 mps 753 mmHg 80%
    21:00 +16°C° 0 mm 2 mps 752 mmHg 81%
    22:00 +15°C° 0 mm 2 mps 752 mmHg 82%
    23:00 +15°C° 0 mm 2 mps 752 mmHg 84%

    Tomorrow, 27 August, Tuesday

    Time Temperature Precipitation Wind Pressure Humidity
    00:00 +15°C° 0 mm 2 mps 751 mmHg 85%
    01:00 +14°C° 0 mm 3 mps 751 mmHg 86%
    02:00 +13°C° 0 mm 3 mps 751 mmHg 87%
    03:00 +14°C° 0 mm 3 mps 751 mmHg 87%
    04:00 +14°C° 0 mm 3 mps 750 mmHg 87%
    05:00 +14°C° 0 mm 4 mps 750 mmHg 87%
    06:00 +15°C° 0 mm 4 mps 750 mmHg 85%
    07:00 +17°C° 0 mm 4 mps 749 mmHg 84%
    08:00 +17°C° 0 mm 5 mps 749 mmHg 83%
    09:00 +19°C° 0.2 mm 5 mps 749 mmHg 78%
    10:00 +20°C° 0.2 mm 5 mps 749 mmHg 74%
    11:00 +22°C° 0.2 mm 6 mps 749 mmHg 69%
    12:00 +22°C° 0.1 mm 6 mps 749 mmHg 65%
    13:00 +22°C° 0.1 mm 6 mps 749 mmHg 62%
    14:00 +23°C° 0.1 mm 6 mps 749 mmHg 58%
    15:00 +22°C° 0 mm 5 mps 749 mmHg 61%
    16:00 +21°C° 0 mm 4 mps 749 mmHg 64%
    17:00 +20°C° 0 mm 4 mps 749 mmHg 66%
    18:00 +19°C° 0 mm 4 mps 749 mmHg 69%
    19:00 +17°C° 0 mm 4 mps 749 mmHg 71%
    20:00 +16°C° 0 mm 3 mps 750 mmHg 74%
    21:00 +14°C° 0 mm 3 mps 750 mmHg 78%
    22:00 +13°C° 0 mm 3 mps 750 mmHg 82%
    23:00 +12°C° 0 mm 3 mps 751 mmHg 86%

    Day after tomorrow, 28 August, Wednesday

    Time Temperature Precipitation Wind Pressure Humidity
    00:00 +12°C° 0 mm 3 mps 751 mmHg 88%
    01:00 +11°C° 0 mm 3 mps 751 mmHg 90%
    02:00 +10°C° 0 mm 2 mps 751 mmHg 92%
    03:00 +10°C° 0 mm 3 mps 751 mmHg 92%
    04:00 +9°C° 0 mm 3 mps 751 mmHg 92%
    05:00 +9°C° 0 mm 3 mps 752 mmHg 92%
    06:00 +10°C° 0 mm 4 mps 752 mmHg 85%
    07:00 +12°C° 0 mm 4 mps 752 mmHg 79%
    08:00 +13°C° 0 mm 5 mps 753 mmHg 73%
    09:00 +14°C° 0 mm 5 mps 752 mmHg 67%
    10:00 +15°C° 0 mm 5 mps 752 mmHg 61%
    11:00 +16°C° 0 mm 5 mps 752 mmHg 55%
    12:00 +16°C° 0 mm 5 mps 752 mmHg 53%
    13:00 +16°C° 0 mm 5 mps 753 mmHg 50%
    14:00 +18°C° 0 mm 4 mps 753 mmHg 47%
    15:00 +17°C° 0 mm 4 mps 753 mmHg 51%
    16:00 +16°C° 0 mm 3 mps 753 mmHg 56%
    17:00 +16°C° 0 mm 3 mps 753 mmHg 60%
    18:00 +13°C° 0 mm 3 mps 753 mmHg 62%
    19:00 +12°C° 0 mm 2 mps 753 mmHg 65%
    20:00 +10°C° 0 mm 2 mps 754 mmHg 68%
    21:00 +9°C° 0 mm 2 mps 754 mmHg 69%
    22:00 +8°C° 0 mm 2 mps 754 mmHg 71%
    23:00 +8°C° 0 mm 2 mps 754 mmHg 72%

    29 August, Thursday

    Time Temperature Precipitation Wind Pressure Humidity
    00:00 +7°C° 0 mm 2 mps 754 mmHg 73%
    01:00 +8°C° 0 mm 1 mps 754 mmHg 74%
    02:00 +7°C° 0 mm 1 mps 754 mmHg 76%
    03:00 +7°C° 0 mm 1 mps 754 mmHg 76%
    04:00 +7°C° 0 mm 1 mps 755 mmHg 77%
    05:00 +7°C° 0 mm 1 mps 755 mmHg 77%
    06:00 +9°C° 0 mm 1 mps 755 mmHg 72%
    07:00 +10°C° 0 mm 2 mps 755 mmHg 66%
    08:00 +13°C° 0 mm 2 mps 755 mmHg 61%
    09:00 +14°C° 0 mm 2 mps 755 mmHg 57%
    10:00 +16°C° 0 mm 2 mps 754 mmHg 53%
    11:00 +17°C° 0 mm 2 mps 754 mmHg 48%
    12:00 +18°C° 0 mm 2 mps 754 mmHg 50%
    13:00 +18°C° 0 mm 2 mps 754 mmHg 52%
    14:00 +19°C° 0 mm 2 mps 753 mmHg 54%
    15:00 +19°C° 0 mm 2 mps 753 mmHg 59%
    16:00 +19°C° 0 mm 2 mps 753 mmHg 63%
    17:00 +19°C° 0 mm 2 mps 753 mmHg 68%
    18:00 +17°C° 0 mm 2 mps 752 mmHg 72%
    19:00 +15°C° 0 mm 2 mps 752 mmHg 77%
    20:00 +13°C° 0 mm 3 mps 752 mmHg 82%
    21:00 +13°C° 0 mm 2 mps 752 mmHg 84%
    22:00 +13°C° 0 mm 2 mps 752 mmHg 87%
    23:00 +13°C° 0 mm 2 mps 752 mmHg 90%

    30 August, Friday

    Time Temperature Precipitation Wind Pressure Humidity
    00:00 +12°C° 0 mm 2 mps 752 mmHg 91%
    01:00 +12°C° 0 mm 1 mps 752 mmHg 92%
    02:00 +12°C° 0 mm 1 mps 752 mmHg 94%
    03:00 +12°C° 0 mm 1 mps 752 mmHg 94%
    04:00 +12°C° 0 mm 1 mps 752 mmHg 94%
    05:00 +11°C° 0 mm 0 mps 752 mmHg 95%
    06:00 +12°C° 0 mm 0 mps 752 mmHg 91%
    07:00 +14°C° 0 mm 1 mps 752 mmHg 87%
    08:00 +15°C° 0 mm 1 mps 753 mmHg 83%
    09:00 +16°C° 0 mm 1 mps 753 mmHg 81%
    10:00 +18°C° 0 mm 1 mps 753 mmHg 79%
    11:00 +19°C° 0 mm 1 mps 753 mmHg 78%
    12:00 +19°C° 0.3 mm 1 mps 752 mmHg 78%
    13:00 +19°C° 0.3 mm 1 mps 752 mmHg 79%
    14:00 +19°C° 0.3 mm 1 mps 752 mmHg 80%
    15:00 +19°C° 0.1 mm 1 mps 752 mmHg 82%
    16:00 +18°C° 0.1 mm 1 mps 752 mmHg 84%
    17:00 +18°C° 0.1 mm 1 mps 752 mmHg 85%
    18:00 +16°C° 0 mm 1 mps 752 mmHg 87%
    19:00 +15°C° 0 mm 1 mps 752 mmHg 89%
    20:00 +14°C° 0 mm 1 mps 752 mmHg 91%
    21:00 +14°C° 0 mm 1 mps 752 mmHg 91%
    22:00 +14°C° 0 mm 1 mps 752 mmHg 92%
    23:00 +14°C° 0 mm 1 mps 752 mmHg 92%

    31 August, Saturday

    Time Temperature Precipitation Wind Pressure Humidity
    00:00 +14°C° 0 mm 1 mps 752 mmHg 92%
    01:00 +13°C° 0 mm 1 mps 752 mmHg 92%
    02:00 +13°C° 0 mm 1 mps 752 mmHg 92%
    03:00 +13°C° 0 mm 1 mps 752 mmHg 93%
    04:00 +13°C° 0 mm 1 mps 752 mmHg 93%
    05:00 +12°C° 0 mm 1 mps 752 mmHg 94%
    06:00 +14°C° 0 mm 1 mps 752 mmHg 90%
    07:00 +15°C° 0 mm 1 mps 752 mmHg 86%
    08:00 +18°C° 0 mm 1 mps 752 mmHg 82%
    09:00 +19°C° 0 mm 1 mps 752 mmHg 76%
    10:00 +21°C° 0 mm 1 mps 752 mmHg 70%
    11:00 +22°C° 0 mm 1 mps 752 mmHg 64%
    12:00 +23°C° 0 mm 1 mps 752 mmHg 62%
    13:00 +23°C° 0 mm 2 mps 752 mmHg 59%
    14:00 +23°C° 0 mm 2 mps 751 mmHg 57%
    15:00 +23°C° 0 mm 2 mps 751 mmHg 62%
    16:00 +21°C° 0 mm 2 mps 751 mmHg 67%
    17:00 +21°C° 0 mm 1 mps 751 mmHg 71%
    18:00 +20°C° 0 mm 1 mps 751 mmHg 75%
    19:00 +19°C° 0 mm 1 mps 751 mmHg 78%
    20:00 +16°C° 0 mm 1 mps 751 mmHg 82%
    21:00 +16°C° 0 mm 1 mps 751 mmHg 83%
    22:00 +16°C° 0 mm 1 mps 751 mmHg 84%
    23:00 +16°C° 0 mm 1 mps 751 mmHg 85%
    Show more